This demonstration page uses our WeatherBlox Daily Observations layout. Learn more.

36.17497, -115.13722

Hourly Observations for July 16, 2015

Temp ( °F °C ) Dew Point ( °F °C ) Humidity (%) Winds ( mph kmh ) Pressure ( in mb ) Visibility ( mi km ) Precip ( " mm )
12:53 am 00:53 Clear 84 29 30 -1 14 14 S 6 9 29.71 1006 10 16.09344 0 0
1:53 am 01:53 Clear 82 28 30 -1 15 15 Calm 29.71 1006 10 16.09344 0 0
2:53 am 02:53 Clear 79 26 36 2 21 21 NNE 3 6 29.74 1007 10 16.09344 0 0
3:53 am 03:53 Clear 75 24 32 0 21 21 NW 5 7 29.77 1008 10 16.09344 0 0
4:53 am 04:53 Clear 77 25 30 -1 18 18 NNW 5 7 29.77 1008 10 16.09344 0 0
5:53 am 05:53 Sunny 75 24 32 0 21 21 Calm 29.8 1009 10 16.09344 0 0
6:53 am 06:53 Sunny 77 25 34 1 21 21 NNW 3 6 29.8 1009 10 16.09344 0 0
7:53 am 07:53 Sunny 82 28 34 1 17 17 Calm 29.8 1009 10 16.09344 0 0
8:53 am 08:53 Sunny 86 30 34 1 15 15 Calm 29.8 1009 10 16.09344 0 0
9:53 am 09:53 Sunny 91 33 34 1 13 13 S 5 7 29.77 1008 10 16.09344 0 0
10:53 am 10:53 Sunny 93 34 34 1 12 12 SSW 3 6 29.77 1008 10 16.09344 0 0
11:53 am 11:53 Sunny 99 37 32 0 10 10 S 9 15 29.71 1006 10 16.09344 0 0
12:53 pm 12:53 Sunny 100 38 28 -2 8 8 S 17 28 29.68 1005 10 16.09344 0 0
1:53 pm 13:53 Sunny 100 38 28 -2 8 8 SSW 12 19 29.65 1004 10 16.09344 0 0
2:53 pm 14:53 Sunny 100 38 30 -1 8 8 N 3 6 29.62 1003 10 16.09344 0 0
3:53 pm 15:53 Sunny 104 40 28 -2 7 7 W 16 26 29.56 1001 10 16.09344 0 0
4:53 pm 16:53 Sunny 102 39 30 -1 8 8 SW 10 17 29.56 1001 10 16.09344 0 0
5:53 pm 17:53 Sunny 102 39 28 -2 7 7 W 10 17 29.53 1000 10 16.09344 0 0
6:53 pm 18:53 Sunny 102 39 23 -5 6 6 W 13 20 29.53 1000 10 16.09344 0 0
7:53 pm 19:53 Sunny 99 37 21 -6 6 6 WSW 12 19 29.56 1001 10 16.09344 0 0
8:53 pm 20:53 Clear 97 36 25 -4 7 7 WSW 9 15 29.59 1002 10 16.09344 0 0
9:53 pm 21:53 Clear 95 35 27 -3 9 9 SW 9 15 29.59 1002 10 16.09344 0 0
10:53 pm 22:53 Clear 93 34 27 -3 9 9 WSW 7 11 29.65 1004 10 16.09344 0 0
11:53 pm 23:53 Clear 91 33 27 -3 10 10 SW 9 15 29.65 1004 10 16.09344 0 0

Powered by AerisWeather